Current weather by "City, St" or "zip code"  
 

Current Conditions: Hammond, Hammond Municipal Airport, LA

Overcast


63.0 F

Last Updated on Jan 22 2019, 9:55 am CST
Humidity: 73%
Wind Speed: SE 18.4 G 28.8 mph
Barometer 30.19 in
Dewpoint: 53.6 F
Visibility: 10.00 mi
Precip: --
Heat Index: NA
Wind Chill: 61 F
Current conditions at:

Hammond, Hammond Municipal Airport, LA (KHDC)

Lat: 30.52 Lon: 90.417

Local Radar Image active severe weather and emergency alerts image image weather storm and storm spotter reports image weather observation monitoring service image
Local
Radar
Active
Alerts
Storm Reports Obs
Monitoring

iAlert Weather and Emergency Alert Notification Services:


ialert severe weather and emergency alerts by text message and email ialert daily weather forecast by email and text message service ialert real-time weather-observation monitoring and alert notification service ialert storm report monitoring alert notification

Observation History for Hammond, Hammond Municipal Airport, LA


Time Wind
(mph)
Vis
(mi)
Weather Precip (in) Temperature (F) Relative
Humidity
Wind
Chill
(°F)
Heat
Index
(°F)
Pressure
Air Dwpt altimeter
(in)
sea level
(mb)
9:55 am CST SE 18.4 G 28.8 10.00 Overcast -- 63.0 53.6 73% 61 NA 30.19 M
8:55 am CST E 8.1 10.00 Overcast -- 57.0 50.0 77% 55 NA 30.18 M
7:55 am CST E 6.9 10.00 Overcast -- 54.0 46.4 77% 52 NA 30.18 M
6:55 am CST E 5.8 10.00 Overcast -- 52.0 46.4 82% 50 NA 30.18 M
5:55 am CST E 8.1 10.00 Overcast -- 54.0 46.4 77% 52 NA 30.17 M
4:55 am CST E 5.8 10.00 Overcast -- 52.0 44.6 77% 50 NA 30.17 M
3:55 am CST SE 9.2 10.00 Overcast -- 52.0 46.4 82% 49 NA 30.18 M
2:55 am CST E 6.9 10.00 Overcast -- 52.0 44.6 77% 50 NA 30.19 M
1:55 am CST E 5.8 10.00 Overcast -- 50.0 42.8 76% 48 NA 30.21 M
12:55 am CST SE 4.6 10.00 Overcast -- 48.0 41.0 76% 46 NA 30.23 M
11:55 pm CST SE 6.9 10.00 Overcast -- 45.0 39.2 81% 41 NA 30.24 M
10:55 pm CST E 6.9 10.00 Partly Cloudy -- 43.0 37.4 81% 39 NA 30.26 M
9:55 pm CST E 5.8 10.00 Fair -- 43.0 35.6 76% 39 NA 30.28 M
8:55 pm CST E 4.6 10.00 Fair -- 45.0 35.6 71% 43 NA 30.29 M
7:55 pm CST SE 5.8 10.00 Mostly Cloudy -- 46.0 39.2 76% 43 NA 30.29 M
6:55 pm CST SE 5.8 10.00 Overcast -- 46.0 41.0 82% 43 NA 30.28 M
5:55 pm CST SE 8.1 10.00 Overcast -- 48.0 39.2 71% 44 NA 30.31 M
4:55 pm CST S 8.1 10.00 Partly Cloudy -- 50.0 39.2 67% 47 NA 30.31 M
3:55 pm CST SE 9.2 10.00 Fair -- 52.0 37.4 58% 49 NA 30.31 M
2:55 pm CST SE 9.2 10.00 Fair -- 54.0 33.8 47% 51 NA 30.31 M
1:55 pm CST SE 9.2 10.00 Fair -- 52.0 32.0 47% 49 NA 30.34 M
12:55 pm CST SE 8.1 G 18.4 10.00 Fair -- 52.0 32.0 47% 49 NA 30.35 M
11:55 am CST SE 6.9 10.00 Fair -- 50.0 30.2 47% 47 NA 30.39 M
10:55 am CST SE 4.6 10.00 Fair -- 46.0 28.4 50% 44 NA 30.43 M

Regional Weather Observation


New Orleans, New Orleans International Airport, LA (KMSY)

Overcast
66.0 F

New Orleans, New Orleans Lakefront Airport, LA (KNEW)

Overcast
60.0 F

McComb, McComb / Pike County / John E Lewis Field Airport, MS (KMCB)

Overcast
59.0 F

Baton Rouge, Baton Rouge Metropolitan, Ryan Field, LA (KBTR)

Overcast
64.0 F

New Roads False River Regional Airport, LA (KHZR)

Overcast
63.0 F

Bogalusa, George R Carr Memorial Air Field, LA (KBXA)

Overcast
56.0 F

Advertise Here


Advertise Here